[[{"header":{"parameterUnit":"m.s-1","parameterCategory":1,"la1":30.2991,"la2":30.254,"lo1":-89.0895,"lo2":-89.0444,"dy":0.0017,"dx":0.0017,"nx":28,"ny":28,"refTime":"2023-10-31T09:00:00:Z","depth":0,"parameterNumber":2,"parameterNumberName":"U-component_of_WINDS"},"data":[0,0,0,0,0,0,0,0,0,0,0,0,0,0,0,0,0,0,0,0,0,0,0,0,0,0,0,0,0,0,0,0,0,0,0,0,0,0,0,0,0,0,0,0,0,0,0,0,0,0,0,0,0,0,0,0,0,0,0.538,0.538,0,0.5394,0.5394,0.5394,0.5406,0.5406,0.5406,0.5406,0.5418,0.5419,0.5419,0,0,0,0,0,0,0,0,0,0,0,0,0,0.5366,0.5366,0.538,0.538,0.5381,0.5393,0.5394,0.5394,0.5406,0.5406,0.5406,0.5406,0.5418,0.5419,0.5419,0,0,0,0,0,0,0,0,0,0,0,0,0,0.5375,0.5366,0.538,0.5388,0.5389,0.5393,0.5394,0.5394,0.5406,0.5406,0.5406,0.5406,0.5418,0.5419,0.5419,0.5416,0,0,0.542,0.542,0,0,0,0,0,0,0,0,0.5374,0.5375,0.5387,0.5388,0.5389,0.5398,0.5393,0.5401,0.5406,0.5399,0.5406,0.5406,0.5411,0.5412,0.5414,0.5417,0.5417,0.542,0.542,0.542,0.542,0,0,0,0,0,0,0,0.5374,0.5375,0.5385,0.5387,0.5388,0.5391,0.5393,0.5395,0.5404,0.54,0.5401,0.5402,0.5412,0.5414,0.5415,0.5418,0.542,0.542,0.542,0.542,0.5421,0.542,0,0,0,0,0,0,0.5372,0.5374,0.5385,0.5386,0.5382,0.5391,0.5393,0.5395,0.5404,0.5406,0.5402,0.5403,0.5413,0.5414,0.5415,0.5414,0.542,0.542,0.5421,0.5421,0.542,0.542,0,0,0,0,0,0,0.5371,0.5373,0.5385,0.538,0.5382,0.5391,0.5393,0.5395,0.5397,0.5406,0.5407,0.5402,0.5414,0.5415,0.5416,0.5414,0.5421,0.5421,0.5421,0.5421,0.542,0.541,0,0,0,0,0,0,0.5371,0.5372,0.5371,0.538,0.5382,0.5385,0.5393,0.5395,0.5398,0.5399,0.5406,0.5408,0.5414,0.5416,0.5417,0.5415,0.5421,0.5421,0.5421,0.542,0.541,0.5409,0.5408,0,0,0,0,0,0.537,0.5367,0.5371,0.5372,0.5381,0.5385,0.5386,0.5394,0.5397,0.5397,0.5402,0.5408,0.5415,0.5416,0.5417,0.5415,0.5421,0.5421,0.5421,0.5411,0.5409,0.5408,0,0,0,0,0,0,0.5357,0.5368,0.5373,0.5373,0.5378,0.5387,0.5386,0.5392,0.5396,0.5396,0.5405,0.5407,0.5408,0.5412,0.5413,0.5414,0.5419,0.5418,0.5411,0.541,0.5409,0.5407,0.5421,0,0,0,0,0,0.5354,0.5356,0.5366,0.5365,0.5368,0.5377,0.5379,0.5384,0.539,0.5392,0.5398,0.5403,0.5407,0.5408,0.5412,0.5411,0.5414,0.5411,0.541,0.5409,0.5408,0.5409,0.5408,0.5419,0.5419,0.5419,0,0,0.5348,0.5354,0.5355,0.5363,0.5367,0.537,0.5378,0.538,0.5382,0.5392,0.5394,0.5399,0.5405,0.5406,0.5407,0.541,0.5406,0.5408,0.5407,0.5407,0.5409,0.5408,0.5407,0.5419,0.5419,0.5419,0,0,0.5338,0.5343,0.5343,0.5348,0.5356,0.5362,0.5362,0.5371,0.5375,0.5377,0.5385,0.5388,0.5393,0.5398,0.5401,0.5395,0.54,0.5396,0.539,0.5391,0.539,0.539,0.5388,0.5387,0.5396,0.5396,0.5396,0,0.5328,0.5333,0.5342,0.5344,0.5348,0.5358,0.5358,0.5363,0.5371,0.5373,0.5376,0.5384,0.5389,0.5392,0.5391,0.5393,0.5394,0.5395,0.539,0.5389,0.5389,0.5387,0.5387,0.5395,0.5395,0.5395,0.5395,0,0.5322,0.5325,0.5324,0.5333,0.5336,0.5337,0.5347,0.5349,0.5355,0.5361,0.5365,0.5371,0.5377,0.5378,0.5383,0.5382,0.5384,0.5388,0.5393,0.5387,0.5386,0.5385,0.5394,0.5395,0.5395,0.5395,0,0,0.5301,0.5317,0.5316,0.5321,0.5331,0.5334,0.5336,0.5343,0.5345,0.5351,0.5353,0.5359,0.5364,0.5367,0.5373,0.5374,0.537,0.5379,0.5379,0.5377,0.537,0.5366,0.5366,0.5374,0.5374,0.5374,0.537,0,0.5293,0.5298,0.5307,0.5309,0.5312,0.5323,0.5325,0.5332,0.5338,0.5342,0.5349,0.5353,0.5359,0.5362,0.5363,0.537,0.5369,0.5371,0.5376,0.5377,0.5374,0.5365,0.5361,0.5356,0.5369,0.5369,0.5369,0,0.5283,0.5289,0.5292,0.5303,0.5305,0.5307,0.5314,0.5318,0.5326,0.5331,0.5336,0.5343,0.5347,0.5352,0.5358,0.5359,0.5362,0.5366,0.5366,0.5367,0.5372,0.5365,0.5355,0.5354,0.5368,0.5368,0.5368,0,0.5268,0.5278,0.5281,0.5284,0.5298,0.5299,0.5305,0.5313,0.5317,0.5324,0.5327,0.5333,0.5337,0.5342,0.5352,0.5354,0.5356,0.5362,0.536,0.536,0.5359,0.5359,0.5349,0.5362,0.5362,0.5362,0.5362,0,0.5257,0.5258,0.5274,0.5276,0.5278,0.5289,0.5291,0.5298,0.5306,0.5309,0.5319,0.5323,0.5335,0.534,0.5347,0.5351,0.5352,0.5356,0.5358,0.5355,0.5355,0.5357,0.5357,0.5362,0.5362,0.5362,0.5362,0,0.5241,0.5251,0.5255,0.5269,0.5272,0.5273,0.5284,0.5287,0.5295,0.5299,0.5301,0.5313,0.5319,0.533,0.5339,0.5344,0.5346,0.5349,0.5343,0.5345,0.5342,0.5343,0.5333,0.5333,0.5346,0.5346,0.5346,0,0.5233,0.5234,0.5248,0.5251,0.5257,0.5262,0.5267,0.5279,0.5283,0.5294,0.5295,0.5303,0.5309,0.5319,0.5328,0.5336,0.5339,0.5336,0.534,0.5338,0.5339,0.5339,0.534,0.5334,0.5334,0.5334,0.5334,0,0.5217,0.5223,0.5229,0.5238,0.5243,0.525,0.5258,0.526,0.5274,0.5279,0.5286,0.5291,0.5301,0.5309,0.5318,0.5324,0.5331,0.5333,0.5333,0.5329,0.5326,0.5328,0.534,0.5332,0.5332,0.5333,0.5333,0.5333,0.5205,0.5207,0.5218,0.5225,0.5232,0.524,0.5243,0.5252,0.5258,0.5268,0.5275,0.5282,0.5292,0.5305,0.5311,0.5317,0.532,0.532,0.532,0.532,0.5319,0.5326,0.5319,0.5319,0.5319,0.5319,0.5319,0,0.519,0.5198,0.5205,0.5216,0.5222,0.5229,0.5239,0.5243,0.5249,0.5258,0.5265,0.5274,0.5282,0.5293,0.5302,0.5305,0.5309,0.5307,0.5306,0.5308,0.5316,0.5315,0.5304,0.5304,0.5304,0.5304,0.5304,0.5304,0.5183,0.5188,0.5195,0.5204,0.5212,0.5219,0.5224,0.5232,0.5239,0.5249,0.5256,0.5264,0.5274,0.5284,0.5292,0.5295,0.5298,0.5295,0.5299,0.5306,0.5307,0.5308,0.5308,0.5295,0.5295,0.5291,0.5291,0.5291]},{"header":{"parameterUnit":"m.s-1","parameterCategory":1,"la1":30.2991,"la2":30.254,"lo1":-89.0895,"lo2":-89.0444,"dy":0.0017,"dx":0.0017,"nx":28,"ny":28,"refTime":"2023-10-31T09:00:00:Z","depth":0,"parameterNumber":3,"parameterNumberName":"V-component_of_WINDS"},"data":[0,0,0,0,0,0,0,0,0,0,0,0,0,0,0,0,0,0,0,0,0,0,0,0,0,0,0,0,0,0,0,0,0,0,0,0,0,0,0,0,0,0,0,0,0,0,0,0,0,0,0,0,0,0,0,0,0,0,-8.4788,-8.4789,0,-8.4896,-8.4897,-8.4898,-8.4822,-8.4819,-8.4815,-8.4812,-8.4916,-8.4922,-8.4928,0,0,0,0,0,0,0,0,0,0,0,0,0,-8.451,-8.4516,-8.4788,-8.4789,-8.4791,-8.4896,-8.4897,-8.4899,-8.4823,-8.4819,-8.4814,-8.4811,-8.4914,-8.4921,-8.4928,0,0,0,0,0,0,0,0,0,0,0,0,0,-8.4626,-8.4517,-8.4788,-8.4766,-8.4765,-8.4895,-8.4897,-8.4899,-8.4824,-8.4818,-8.4813,-8.4809,-8.4912,-8.4921,-8.4929,-8.5086,0,0,-8.4956,-8.496,0,0,0,0,0,0,0,0,-8.4619,-8.4636,-8.4767,-8.4767,-8.4767,-8.4841,-8.4837,-8.4961,-8.4825,-8.4801,-8.4812,-8.4806,-8.4895,-8.4905,-8.4936,-8.5091,-8.5095,-8.4957,-8.4963,-8.4966,-8.4969,0,0,0,0,0,0,0,-8.4611,-8.4631,-8.483,-8.4769,-8.4769,-8.4748,-8.4759,-8.486,-8.4875,-8.4803,-8.4797,-8.4812,-8.4893,-8.4927,-8.4938,-8.5097,-8.4957,-8.4965,-8.497,-8.4974,-8.5385,-8.539,0,0,0,0,0,0,-8.4606,-8.4625,-8.4827,-8.4834,-8.4679,-8.4757,-8.4769,-8.4822,-8.4874,-8.4877,-8.4816,-8.4808,-8.4915,-8.4927,-8.4941,-8.5128,-8.4966,-8.4975,-8.498,-8.538,-8.5386,-8.5392,0,0,0,0,0,0,-8.46,-8.4625,-8.4823,-8.4728,-8.4751,-8.4768,-8.4827,-8.4827,-8.4861,-8.4884,-8.4885,-8.4849,-8.4911,-8.4929,-8.5051,-8.513,-8.4979,-8.4987,-8.5373,-8.5382,-8.5389,-8.5503,0,0,0,0,0,0,-8.4593,-8.4623,-8.4684,-8.473,-8.4757,-8.4933,-8.4832,-8.4832,-8.4877,-8.4867,-8.4915,-8.4917,-8.4909,-8.5038,-8.506,-8.514,-8.4994,-8.5366,-8.5377,-8.5387,-8.5492,-8.5514,-8.5533,0,0,0,0,0,-8.4583,-8.471,-8.4688,-8.4713,-8.4834,-8.4938,-8.4953,-8.4942,-8.4884,-8.4944,-8.4959,-8.4916,-8.5118,-8.5051,-8.5075,-8.5159,-8.5361,-8.5374,-8.5386,-8.5483,-8.551,-8.5532,0,0,0,0,0,0,-8.4671,-8.4716,-8.4691,-8.4837,-8.4885,-8.4924,-8.5,-8.4971,-8.5033,-8.5021,-8.5003,-8.5014,-8.5143,-8.5163,-8.5087,-8.5313,-8.523,-8.5248,-8.5295,-8.5321,-8.5341,-8.5333,-8.5001,0,0,0,0,0,-8.4708,-8.4791,-8.4824,-8.495,-8.4975,-8.4984,-8.5029,-8.5017,-8.5064,-8.5083,-8.5106,-8.5152,-8.5225,-8.5274,-8.5343,-8.5495,-8.5503,-8.5564,-8.5584,-8.5601,-8.5617,-8.5698,-8.5725,-8.5434,-8.5434,-8.5433,0,0,-8.4784,-8.4819,-8.4871,-8.4968,-8.5003,-8.5088,-8.5001,-8.5094,-8.5155,-8.5096,-8.5214,-8.5233,-8.5282,-8.542,-8.5481,-8.544,-8.5699,-8.5617,-8.563,-8.5637,-8.5714,-8.5741,-8.5766,-8.5442,-8.5441,-8.5439,0,0,-8.4965,-8.5001,-8.5109,-8.5147,-8.5202,-8.5208,-8.5234,-8.5279,-8.529,-8.5409,-8.5366,-8.5438,-8.5565,-8.5603,-8.5638,-8.5836,-8.5798,-8.5859,-8.5965,-8.6045,-8.6068,-8.6088,-8.6158,-8.6183,-8.5874,-8.5874,-8.5875,0,-8.5052,-8.518,-8.5168,-8.5265,-8.5309,-8.5261,-8.5371,-8.5407,-8.5481,-8.5511,-8.5465,-8.5625,-8.5655,-8.58,-8.5849,-8.5879,-8.5908,-8.5853,-8.6066,-8.6086,-8.6104,-8.6171,-8.6198,-8.5881,-8.5881,-8.588,-8.5879,0,-8.5284,-8.5373,-8.5454,-8.553,-8.5582,-8.5685,-8.5687,-8.5741,-8.5725,-8.5735,-8.5856,-8.589,-8.5966,-8.5999,-8.5983,-8.6143,-8.6116,-8.6068,-8.5984,-8.6139,-8.6202,-8.6227,-8.5891,-8.5889,-8.5887,-8.5885,0,0,-8.5523,-8.5593,-8.5623,-8.5657,-8.5715,-8.5782,-8.5882,-8.5958,-8.6005,-8.6058,-8.614,-8.625,-8.6207,-8.6247,-8.6234,-8.6304,-8.6459,-8.6248,-8.6248,-8.6285,-8.6637,-8.6672,-8.6702,-8.6434,-8.6439,-8.6443,-8.6632,0,-8.5708,-8.5885,-8.5878,-8.6042,-8.6124,-8.608,-8.6167,-8.6211,-8.6223,-8.6292,-8.6304,-8.6383,-8.6319,-8.6344,-8.6411,-8.6426,-8.6529,-8.6412,-8.6509,-8.6513,-8.6498,-8.6735,-8.6773,-8.695,-8.6657,-8.6661,-8.6664,0,-8.5947,-8.6011,-8.6184,-8.6231,-8.6265,-8.6344,-8.6413,-8.6481,-8.6529,-8.6533,-8.658,-8.6556,-8.6655,-8.657,-8.6705,-8.6626,-8.6665,-8.6679,-8.6685,-8.6693,-8.6598,-8.6749,-8.7006,-8.7032,-8.6702,-8.6699,-8.6696,0,-8.6104,-8.6233,-8.6354,-8.6384,-8.6442,-8.6498,-8.6524,-8.6568,-8.6614,-8.6675,-8.6704,-8.6775,-8.6813,-8.6867,-8.6862,-8.68,-8.7,-8.6914,-8.7005,-8.7005,-8.7048,-8.7046,-8.7315,-8.7075,-8.7074,-8.7074,-8.7073,0,-8.6311,-8.6419,-8.6425,-8.6499,-8.6618,-8.6609,-8.6726,-8.6746,-8.6786,-8.6861,-8.6827,-8.6898,-8.6888,-8.696,-8.6956,-8.7069,-8.7087,-8.7091,-8.7089,-8.7094,-8.7094,-8.7119,-8.7107,-8.7081,-8.7079,-8.7078,-8.7077,0,-8.6506,-8.6515,-8.6644,-8.6689,-8.6703,-8.6788,-8.6825,-8.6895,-8.6904,-8.7001,-8.7023,-8.7037,-8.7119,-8.7121,-8.7214,-8.7211,-8.735,-8.7333,-8.7334,-8.7331,-8.7422,-8.7413,-8.7716,-8.7756,-8.749,-8.7493,-8.7495,0,-8.6638,-8.672,-8.6775,-8.6825,-8.6855,-8.6935,-8.6983,-8.6977,-8.7028,-8.709,-8.7152,-8.7231,-8.7295,-8.7427,-8.7445,-8.7516,-8.7501,-8.7602,-8.7511,-8.7514,-8.7502,-8.7497,-8.7505,-8.762,-8.7623,-8.7625,-8.7627,0,-8.687,-8.6871,-8.6943,-8.7018,-8.7077,-8.7134,-8.7187,-8.7229,-8.7228,-8.7287,-8.7372,-8.7422,-8.7518,-8.7597,-8.7667,-8.769,-8.7659,-8.7656,-8.7681,-8.7687,-8.7684,-8.7687,-8.7383,-8.7649,-8.7647,-8.7645,-8.7644,-8.7643,-8.7038,-8.7109,-8.7159,-8.7241,-8.7281,-8.7331,-8.7399,-8.7418,-8.749,-8.757,-8.7561,-8.7656,-8.7701,-8.7792,-8.7822,-8.7894,-8.7859,-8.7895,-8.7904,-8.7913,-8.7923,-8.7673,-8.7907,-8.7906,-8.7906,-8.7905,-8.7905,0,-8.7268,-8.7299,-8.7374,-8.7451,-8.7515,-8.7482,-8.7539,-8.7594,-8.7679,-8.7726,-8.779,-8.7887,-8.7964,-8.7988,-8.8062,-8.8115,-8.8103,-8.8135,-8.813,-8.8137,-8.795,-8.7922,-8.8144,-8.8144,-8.8144,-8.8144,-8.8144,-8.8144,-8.7396,-8.7515,-8.7522,-8.766,-8.7689,-8.7784,-8.7819,-8.7865,-8.7903,-8.8014,-8.8079,-8.8095,-8.8133,-8.8209,-8.8278,-8.8282,-8.8311,-8.8349,-8.8348,-8.8174,-8.815,-8.8127,-8.81,-8.8356,-8.8356,-8.8528,-8.853,-8.8531]}]]